FW4377 Weather Reports


Display with metric or nautical units.
time (UTC)temp
F
wind
direction
speed
MPH
gust
MPH
rain 1hr
in
rain 24hr
in
rain mn
in
humidity
%
barometer
mb
20260507221546 62 46 6.0 13.0 0.00 0.13 0.10 34 1005.0
20260507220047 62 294 10.0 20.0 0.00 0.13 0.10 32 1005.0
20260507214554 62 306 7.0 15.0 0.00 0.13 0.10 33 1004.7
20260507213046 62 1 7.0 22.0 0.00 0.13 0.10 33 1004.8
20260507211548 63 302 1.0 15.0 0.00 0.13 0.10 33 1004.6
20260507210052 63 273 8.0 17.0 0.00 0.13 0.10 33 1004.6
20260507204548 63 314 8.0 16.0 0.00 0.14 0.10 32 1004.6
20260507203045 63 302 9.0 19.0 0.00 0.14 0.10 31 1004.6
20260507201604 63 20 6.0 17.0 0.00 0.14 0.10 33 1004.7
20260507200055 62 315 9.0 14.0 0.00 0.14 0.10 29 1004.8
20260507194552 62 278 6.0 17.0 0.00 0.15 0.10 31 1004.9
20260507193051 62 293 10.0 18.0 0.00 0.15 0.10 31 1004.9
20260507191548 63 311 9.0 19.0 0.00 0.15 0.10 30 1004.9
20260507190052 63 322 7.0 17.0 0.00 0.15 0.10 33 1005.1
20260507184546 62 23 9.0 18.0 0.00 0.15 0.10 33 1005.2
20260507183052 63 304 6.0 18.0 0.00 0.15 0.10 34 1005.3
20260507181556 62 242 8.0 16.0 0.00 0.15 0.10 35 1005.3
20260507180049 62 6 4.0 16.0 0.00 0.15 0.10 38 1005.6
20260507174554 61 326 10.0 22.0 0.00 0.15 0.10 43 1005.4
20260507173049 61 311 4.0 15.0 0.00 0.15 0.10 46 1005.5
20260507171556 60 292 8.0 17.0 0.00 0.15 0.10 49 1005.7
20260507170049 61 6 7.0 16.0 0.00 0.15 0.10 50 1005.6
20260507164551 61 42 7.0 15.0 0.00 0.15 0.10 51 1005.9
20260507163046 60 311 7.0 13.0 0.00 0.15 0.10 54 1006.0
20260507161554 59 265 7.0 14.0 0.00 0.15 0.10 54 1006.1
20260507160051 59 331 5.0 11.0 0.00 0.15 0.10 53 1006.4
20260507154552 60 283 6.0 13.0 0.00 0.15 0.10 52 1006.5
20260507153108 59 256 5.0 13.0 0.00 0.15 0.10 51 1006.6
20260507151556 59 304 5.0 12.0 0.00 0.15 0.10 52 1006.6
20260507150055 58 333 6.0 13.0 0.00 0.15 0.10 52 1006.9
20260507144546 58 271 6.0 11.0 0.00 0.15 0.10 53 1006.9
20260507143053 57 297 1.0 9.0 0.00 0.15 0.10 57 1007.2
20260507141545 57 335 2.0 8.0 0.00 0.15 0.10 59 1007.1
20260507140051 56 62 4.0 8.0 0.00 0.15 0.10 60 1007.1
20260507134552 55 30 4.0 12.0 0.00 0.15 0.10 62 1007.3
20260507133054 55 326 3.0 8.0 0.00 0.15 0.10 66 1007.6
20260507131551 54 290 2.0 8.0 0.00 0.15 0.10 69 1007.6
20260507130103 52 309 5.0 9.0 0.00 0.15 0.10 70 1007.8
20260507124607 52 351 4.0 15.0 0.01 0.15 0.10 75 1007.7
20260507123105 50 303 5.0 12.0 0.01 0.15 0.10 80 1007.4
20260507121555 50 297 3.0 8.0 0.01 0.15 0.10 84 1007.5
20260507120042 49 311 3.0 8.0 0.01 0.15 0.10 87 1007.5
20260507114608 49 300 3.0 6.0 0.00 0.14 0.09 88 1007.3
20260507113047 48 328 2.0 4.0 0.00 0.14 0.09 89 1007.5
20260507111550 48 339 1.0 4.0 0.00 0.14 0.09 89 1007.3
20260507110046 48 296 1.0 3.0 0.01 0.14 0.09 89 1007.6
20260507104550 48 207 1.0 3.0 0.02 0.14 0.09 89 1007.5
20260507103047 48 0 1.0 2.0 0.02 0.14 0.09 89 1007.0
20260507101557 48 338 1.0 3.0 0.05 0.14 0.09 88 1007.1
20260507100056 48 307 2.0 8.0 0.05 0.13 0.08 87 1006.9
20260507094549 49 16 2.0 9.0 0.05 0.12 0.07 87 1006.8
20260507093048 49 333 4.0 10.0 0.05 0.12 0.07 87 1006.8
20260507091548 50 341 4.0 11.0 0.02 0.09 0.04 86 1006.8
20260507090050 50 306 3.0 10.0 0.02 0.08 0.03 85 1006.9
20260507084550 50 298 6.0 10.0 0.02 0.07 0.02 85 1006.6
20260507083105 50 316 4.0 10.0 0.02 0.07 0.02 85 1006.4
20260507081553 51 340 8.0 14.0 0.02 0.07 0.02 83 1006.6
20260507080050 52 319 7.0 16.0 0.01 0.06 0.01 82 1006.5
20260507074558 53 314 8.0 14.0 0.00 0.05 0.00 80 1006.6
20260507073058 53 310 7.0 15.0 0.00 0.05 0.00 81 1005.8
20260507071549 54 331 4.0 8.0 0.00 0.05 0.00 85 1006.0
20260507070047 54 290 3.0 13.0 0.00 0.05 0.00 85 1005.8
20260507064550 54 295 4.0 8.0 0.00 0.05 0.00 86 1005.9
20260507063050 54 21 4.0 8.0 0.00 0.05 0.00 87 1005.7
20260507061545 55 322 5.0 11.0 0.00 0.05 0.00 86 1005.7
20260507060043 55 317 5.0 11.0 0.00 0.05 0.00 86 1005.9
20260507054546 56 285 7.0 13.0 0.00 0.05 0.00 86 1006.1
20260507053048 56 330 7.0 12.0 0.00 0.05 0.00 87 1005.9
20260507051550 57 302 3.0 8.0 0.00 0.05 0.00 87 1005.8
20260507050050 58 326 5.0 13.0 0.00 0.05 0.00 87 1005.8
20260507044549 59 269 5.0 11.0 0.00 0.05 0.00 90 1005.7
20260507043045 59 247 3.0 9.0 0.01 0.05 0.00 91 1005.8
20260507041548 59 249 4.0 9.0 0.01 0.05 0.00 92 1005.9
20260507040046 59 260 4.0 8.0 0.01 0.05 0.00 92 1006.0
20260507034547 59 264 4.0 9.0 0.01 0.05 0.05 91 1005.7
20260507033042 59 234 7.0 15.0 0.00 0.04 0.04 90 1005.7
20260507031541 59 255 7.0 12.0 0.00 0.04 0.04 90 1005.3
20260507030050 59 222 4.0 13.0 0.00 0.04 0.04 90 1005.1
20260507024601 59 263 8.0 13.0 0.00 0.04 0.04 90 1005.4
20260507023047 59 233 6.0 12.0 0.00 0.04 0.04 90 1005.5
20260507021551 58 255 6.0 12.0 0.00 0.04 0.04 90 1005.4
20260507020107 58 214 4.0 11.0 0.00 0.04 0.04 90 1005.6
20260507014605 58 245 6.0 12.0 0.00 0.04 0.04 91 1005.7
20260507013053 58 210 6.0 10.0 0.00 0.04 0.04 91 1005.8
20260507011551 57 295 8.0 13.0 0.00 0.04 0.04 91 1005.9
20260507010050 57 210 7.0 12.0 0.00 0.04 0.04 91 1006.0
20260507004553 57 224 5.0 14.0 0.00 0.04 0.04 91 1005.9
20260507003047 56 207 8.0 14.0 0.01 0.04 0.04 91 1006.0
20260507001553 56 186 5.0 16.0 0.02 0.04 0.04 91 1005.8
20260507000049 56 238 5.0 13.0 0.02 0.04 0.04 91 1005.7
20260506234552 56 219 5.0 10.0 0.02 0.04 0.04 91 1005.8
20260506233048 57 185 4.0 13.0 0.01 0.03 0.03 91 1005.7
20260506231557 57 207 6.0 17.0 0.00 0.02 0.02 90 1005.8
20260506230055 57 178 6.0 16.0 0.00 0.02 0.02 90 1005.8
20260506224552 58 247 8.0 18.0 0.00 0.02 0.02 90 1005.7
20260506223054 58 152 8.0 16.0 0.00 0.02 0.02 89 1005.9